| time (UTC) | temp C | wind direction | speed KPH | gust KPH | rain 1hr cm | rain 24hr cm | rain mn cm | humidity % | barometer mb |
| 20260505140234 | 23 | 124 | 16.1 | 19.3 | 0.00 | 0.00 | 0.00 | 63 | 347.9 |
| 20260505130158 | 23 | 125 | 16.1 | 17.7 | 0.00 | 0.00 | 0.00 | 65 | 348.2 |
| 20260505124648 | 23 | 119 | 14.5 | 17.7 | 0.00 | 0.00 | 0.00 | 65 | 348.0 |
| 20260505124145 | 23 | 124 | 16.1 | 19.3 | 0.00 | 0.00 | 0.00 | 65 | 348.1 |
| 20260505123641 | 23 | 130 | 17.7 | 19.3 | 0.00 | 0.00 | 0.00 | 67 | 348.1 |
| 20260505123138 | 23 | 127 | 17.7 | 20.9 | 0.00 | 0.00 | 0.00 | 66 | 348.2 |
| 20260505122634 | 23 | 118 | 17.7 | 17.7 | 0.00 | 0.00 | 0.00 | 66 | 348.2 |
| 20260505122132 | 22 | 134 | 17.7 | 19.3 | 0.00 | 0.00 | 0.00 | 67 | 348.3 |
| 20260505121628 | 22 | 125 | 17.7 | 20.9 | 0.00 | 0.00 | 0.00 | 67 | 348.2 |
| 20260505121125 | 22 | 135 | 17.7 | 19.3 | 0.00 | 0.00 | 0.00 | 66 | 348.1 |
| 20260505120621 | 22 | 127 | 17.7 | 20.9 | 0.00 | 0.00 | 0.00 | 66 | 348.2 |
| 20260505120117 | 22 | 133 | 17.7 | 19.3 | 0.00 | 0.00 | 0.00 | 67 | 348.1 |
| 20260505115612 | 22 | 126 | 17.7 | 19.3 | 0.00 | 0.00 | 0.00 | 67 | 348.2 |
| 20260505115109 | 22 | 119 | 16.1 | 19.3 | 0.00 | 0.00 | 0.00 | 66 | 348.2 |
| 20260505114606 | 22 | 127 | 17.7 | 22.5 | 0.00 | 0.00 | 0.00 | 67 | 348.2 |
| 20260505114103 | 22 | 118 | 17.7 | 20.9 | 0.00 | 0.00 | 0.00 | 67 | 348.2 |
| 20260505113559 | 22 | 127 | 17.7 | 20.9 | 0.00 | 0.00 | 0.00 | 67 | 348.1 |
| 20260505113056 | 22 | 122 | 17.7 | 20.9 | 0.00 | 0.00 | 0.00 | 67 | 348.3 |
| 20260505112552 | 22 | 122 | 17.7 | 20.9 | 0.00 | 0.00 | 0.00 | 68 | 348.3 |
| 20260505112051 | 22 | 132 | 12.9 | 19.3 | 0.00 | 0.00 | 0.00 | 69 | 348.3 |
| 20260505111549 | 22 | 133 | 14.5 | 20.9 | 0.00 | 0.00 | 0.00 | 69 | 348.2 |
| 20260505111046 | 22 | 123 | 17.7 | 22.5 | 0.00 | 0.00 | 0.00 | 69 | 348.4 |
| 20260505110542 | 22 | 122 | 20.9 | 22.5 | 0.00 | 0.00 | 0.00 | 69 | 348.3 |
| 20260505102015 | 22 | 127 | 19.3 | 22.5 | 0.00 | 0.00 | 0.00 | 70 | 348.4 |
| 20260505101513 | 22 | 135 | 22.5 | 24.1 | 0.00 | 0.00 | 0.00 | 70 | 348.3 |
| 20260505101009 | 22 | 134 | 17.7 | 20.9 | 0.00 | 0.00 | 0.00 | 70 | 348.3 |
| 20260505100506 | 22 | 128 | 19.3 | 22.5 | 0.00 | 0.00 | 0.00 | 70 | 348.3 |
| 20260505100003 | 22 | 126 | 22.5 | 22.5 | 0.00 | 0.00 | 0.00 | 70 | 348.3 |
| 20260505095459 | 22 | 128 | 19.3 | 24.1 | 0.00 | 0.00 | 0.00 | 70 | 348.2 |
| 20260505094955 | 22 | 129 | 22.5 | 24.1 | 0.00 | 0.00 | 0.00 | 70 | 348.3 |
| 20260505094453 | 22 | 130 | 19.3 | 24.1 | 0.00 | 0.00 | 0.00 | 70 | 348.3 |
| 20260505093949 | 22 | 125 | 14.5 | 22.5 | 0.00 | 0.00 | 0.00 | 70 | 348.4 |
| 20260505093445 | 22 | 123 | 22.5 | 24.1 | 0.00 | 0.00 | 0.00 | 69 | 348.3 |
| 20260505092942 | 22 | 124 | 20.9 | 24.1 | 0.00 | 0.00 | 0.00 | 70 | 348.4 |
| 20260505092440 | 22 | 133 | 22.5 | 25.7 | 0.00 | 0.00 | 0.00 | 70 | 348.5 |
| 20260505091938 | 22 | 138 | 22.5 | 24.1 | 0.00 | 0.00 | 0.00 | 70 | 348.3 |
| 20260505091435 | 22 | 138 | 19.3 | 20.9 | 0.00 | 0.00 | 0.00 | 70 | 348.3 |
| 20260505090933 | 22 | 140 | 20.9 | 25.7 | 0.00 | 0.00 | 0.00 | 69 | 348.2 |
| 20260505090431 | 22 | 139 | 17.7 | 24.1 | 0.00 | 0.00 | 0.00 | 69 | 348.2 |
| 20260505085928 | 22 | 131 | 17.7 | 24.1 | 0.00 | 0.00 | 0.00 | 69 | 348.4 |
| 20260505085426 | 22 | 131 | 20.9 | 25.7 | 0.00 | 0.00 | 0.00 | 69 | 348.3 |
| 20260505084924 | 22 | 139 | 17.7 | 19.3 | 0.00 | 0.00 | 0.00 | 69 | 348.3 |
| 20260505084422 | 22 | 121 | 12.9 | 22.5 | 0.00 | 0.00 | 0.00 | 68 | 348.2 |
| 20260505083919 | 22 | 129 | 11.3 | 17.7 | 0.00 | 0.00 | 0.00 | 68 | 348.3 |
| 20260505083417 | 22 | 140 | 14.5 | 20.9 | 0.00 | 0.00 | 0.00 | 69 | 348.4 |
| 20260505082913 | 22 | 142 | 17.7 | 20.9 | 0.00 | 0.00 | 0.00 | 69 | 348.2 |
| 20260505082408 | 22 | 130 | 22.5 | 22.5 | 0.00 | 0.00 | 0.00 | 69 | 348.3 |
| 20260505081906 | 22 | 124 | 20.9 | 22.5 | 0.00 | 0.00 | 0.00 | 68 | 348.3 |
| 20260505081402 | 22 | 129 | 14.5 | 24.1 | 0.00 | 0.00 | 0.00 | 67 | 348.3 |
| 20260505080859 | 22 | 134 | 17.7 | 22.5 | 0.00 | 0.00 | 0.00 | 68 | 348.2 |
| 20260505080355 | 22 | 126 | 17.7 | 20.9 | 0.00 | 0.00 | 0.00 | 68 | 348.3 |
| 20260505075851 | 22 | 126 | 20.9 | 22.5 | 0.00 | 0.00 | 0.00 | 67 | 348.2 |
| 20260505075348 | 22 | 132 | 17.7 | 22.5 | 0.00 | 0.00 | 0.00 | 68 | 348.2 |
| 20260505074845 | 22 | 136 | 16.1 | 20.9 | 0.00 | 0.00 | 0.00 | 68 | 348.3 |
| 20260505074342 | 22 | 133 | 22.5 | 24.1 | 0.00 | 0.00 | 0.00 | 68 | 348.3 |
| 20260505073839 | 22 | 123 | 12.9 | 22.5 | 0.00 | 0.00 | 0.00 | 68 | 348.4 |
| 20260505073337 | 22 | 124 | 20.9 | 22.5 | 0.00 | 0.00 | 0.00 | 69 | 348.3 |
| 20260505072834 | 22 | 122 | 11.3 | 19.3 | 0.00 | 0.00 | 0.00 | 68 | 348.3 |
| 20260505072330 | 22 | 134 | 12.9 | 19.3 | 0.00 | 0.00 | 0.00 | 69 | 348.2 |
| 20260505071826 | 22 | 131 | 17.7 | 24.1 | 0.00 | 0.00 | 0.00 | 68 | 348.4 |
| 20260505071323 | 22 | 128 | 12.9 | 20.9 | 0.00 | 0.00 | 0.00 | 68 | 348.3 |
| 20260505070821 | 22 | 124 | 14.5 | 25.7 | 0.00 | 0.00 | 0.00 | 69 | 348.2 |
| 20260505070318 | 22 | 135 | 22.5 | 24.1 | 0.00 | 0.00 | 0.00 | 69 | 348.4 |
| 20260505065812 | 22 | 137 | 22.5 | 27.4 | 0.00 | 0.00 | 0.00 | 69 | 348.3 |
| 20260505065309 | 22 | 147 | 20.9 | 25.7 | 0.00 | 0.00 | 0.00 | 68 | 348.2 |
| 20260505064807 | 22 | 139 | 17.7 | 25.7 | 0.00 | 0.00 | 0.00 | 69 | 348.4 |
| 20260505064303 | 22 | 132 | 20.9 | 24.1 | 0.00 | 0.00 | 0.00 | 69 | 348.3 |
| 20260505063801 | 22 | 133 | 22.5 | 27.4 | 0.00 | 0.00 | 0.00 | 69 | 348.4 |
| 20260505063257 | 22 | 138 | 24.1 | 27.4 | 0.00 | 0.00 | 0.00 | 68 | 348.2 |
| 20260505062754 | 22 | 130 | 22.5 | 25.7 | 0.00 | 0.00 | 0.00 | 68 | 348.3 |
| 20260505062252 | 22 | 140 | 22.5 | 27.4 | 0.00 | 0.00 | 0.00 | 69 | 348.2 |
| 20260505061748 | 22 | 136 | 16.1 | 29.0 | 0.00 | 0.00 | 0.00 | 69 | 348.2 |
| 20260505061246 | 22 | 138 | 20.9 | 27.4 | 0.00 | 0.00 | 0.00 | 69 | 348.3 |
| 20260505060743 | 22 | 136 | 17.7 | 27.4 | 0.00 | 0.00 | 0.00 | 69 | 348.3 |
| 20260505060241 | 22 | 134 | 22.5 | 24.1 | 0.00 | 0.00 | 0.00 | 69 | 348.4 |
| 20260505055736 | 22 | 136 | 24.1 | 29.0 | 0.00 | 0.00 | 0.00 | 69 | 348.3 |
| 20260505055232 | 22 | 126 | 25.7 | 30.6 | 0.00 | 0.00 | 0.00 | 69 | 348.4 |
| 20260505054730 | 22 | 128 | 24.1 | 27.4 | 0.00 | 0.00 | 0.00 | 70 | 348.2 |
| 20260505054227 | 22 | 137 | 17.7 | 29.0 | 0.00 | 0.00 | 0.00 | 70 | 348.4 |
| 20260505053726 | 22 | 140 | 24.1 | 29.0 | 0.00 | 0.00 | 0.00 | 69 | 348.3 |
| 20260505053222 | 22 | 137 | 24.1 | 29.0 | 0.00 | 0.00 | 0.00 | 69 | 348.3 |
| 20260505052719 | 22 | 139 | 25.7 | 32.2 | 0.00 | 0.00 | 0.00 | 68 | 348.3 |
| 20260505052215 | 22 | 137 | 27.4 | 30.6 | 0.00 | 0.00 | 0.00 | 68 | 348.3 |
| 20260505051713 | 22 | 133 | 20.9 | 30.6 | 0.00 | 0.00 | 0.00 | 69 | 348.3 |
| 20260505051211 | 22 | 132 | 27.4 | 30.6 | 0.00 | 0.00 | 0.00 | 67 | 348.3 |
| 20260505050709 | 22 | 131 | 27.4 | 30.6 | 0.00 | 0.00 | 0.00 | 68 | 348.2 |
| 20260505050207 | 22 | 128 | 27.4 | 30.6 | 0.00 | 0.00 | 0.00 | 68 | 348.3 |
| 20260505041637 | 22 | 148 | 20.9 | 27.4 | 0.00 | 0.00 | 0.00 | 67 | 348.4 |
| 20260505041134 | 22 | 136 | 24.1 | 27.4 | 0.00 | 0.00 | 0.00 | 67 | 348.2 |
| 20260505040631 | 22 | 142 | 20.9 | 25.7 | 0.00 | 0.00 | 0.00 | 68 | 348.3 |
| 20260505040128 | 22 | 140 | 27.4 | 33.8 | 0.00 | 0.00 | 0.00 | 68 | 348.2 |
| 20260505035624 | 22 | 141 | 24.1 | 32.2 | 0.00 | 0.00 | 0.00 | 69 | 348.5 |
| 20260505035120 | 22 | 135 | 27.4 | 30.6 | 0.00 | 0.00 | 0.00 | 69 | 348.4 |
| 20260505034617 | 22 | 134 | 27.4 | 33.8 | 0.00 | 0.00 | 0.00 | 68 | 348.2 |
| 20260505034114 | 22 | 129 | 29.0 | 30.6 | 0.00 | 0.00 | 0.00 | 68 | 348.3 |
| 20260505033611 | 22 | 125 | 30.6 | 30.6 | 0.00 | 0.00 | 0.00 | 67 | 348.4 |
| 20260505033110 | 22 | 130 | 27.4 | 33.8 | 0.00 | 0.00 | 0.00 | 67 | 348.1 |
| 20260505032607 | 22 | 127 | 24.1 | 30.6 | 0.00 | 0.00 | 0.00 | 68 | 348.3 |
| 20260505032103 | 22 | 126 | 27.4 | 30.6 | 0.00 | 0.00 | 0.00 | 68 | 348.3 |
| 20260505031601 | 22 | 128 | 27.4 | 32.2 | 0.00 | 0.00 | 0.00 | 67 | 348.5 |
| 20260505031056 | 22 | 128 | 29.0 | 33.8 | 0.00 | 0.00 | 0.00 | 67 | 348.4 |
| 20260505030554 | 22 | 126 | 29.0 | 33.8 | 0.00 | 0.00 | 0.00 | 67 | 348.5 |
| 20260505030049 | 22 | 125 | 29.0 | 32.2 | 0.00 | 0.00 | 0.00 | 67 | 348.3 |
| 20260505025545 | 22 | 128 | 29.0 | 33.8 | 0.00 | 0.00 | 0.00 | 68 | 348.2 |
| 20260505025045 | 22 | 128 | 27.4 | 32.2 | 0.00 | 0.00 | 0.00 | 68 | 348.3 |
| 20260505024541 | 22 | 127 | 29.0 | 33.8 | 0.00 | 0.00 | 0.00 | 67 | 348.3 |
| 20260505024038 | 22 | 124 | 29.0 | 32.2 | 0.00 | 0.00 | 0.00 | 67 | 348.2 |
| 20260505023535 | 22 | 128 | 29.0 | 32.2 | 0.00 | 0.00 | 0.00 | 67 | 348.2 |
| 20260505023033 | 22 | 120 | 30.6 | 30.6 | 0.00 | 0.00 | 0.00 | 67 | 348.3 |
| 20260505022530 | 22 | 122 | 27.4 | 30.6 | 0.00 | 0.00 | 0.00 | 67 | 348.2 |
| 20260505022027 | 22 | 125 | 27.4 | 33.8 | 0.00 | 0.00 | 0.00 | 67 | 348.2 |
| 20260505021524 | 22 | 128 | 27.4 | 35.4 | 0.00 | 0.00 | 0.00 | 68 | 348.3 |
| 20260505021021 | 22 | 124 | 29.0 | 30.6 | 0.00 | 0.00 | 0.00 | 68 | 348.3 |
| 20260505020520 | 22 | 121 | 30.6 | 30.6 | 0.00 | 0.00 | 0.00 | 68 | 348.2 |
| 20260505020018 | 22 | 126 | 29.0 | 32.2 | 0.00 | 0.00 | 0.00 | 68 | 348.3 |
| 20260505015515 | 22 | 123 | 29.0 | 33.8 | 0.00 | 0.00 | 0.00 | 67 | 348.5 |
| 20260505015012 | 22 | 128 | 29.0 | 29.0 | 0.00 | 0.00 | 0.00 | 69 | 348.2 |
| 20260505014509 | 22 | 120 | 30.6 | 33.8 | 0.00 | 0.00 | 0.00 | 69 | 348.2 |
| 20260505014006 | 22 | 119 | 27.4 | 33.8 | 0.00 | 0.00 | 0.00 | 68 | 348.3 |
| 20260505013503 | 22 | 120 | 27.4 | 30.6 | 0.00 | 0.00 | 0.00 | 68 | 348.3 |
| 20260505013000 | 22 | 121 | 27.4 | 33.8 | 0.00 | 0.00 | 0.00 | 68 | 348.2 |
| 20260505012458 | 22 | 115 | 27.4 | 32.2 | 0.00 | 0.00 | 0.00 | 69 | 348.2 |
| 20260505011955 | 22 | 118 | 30.6 | 30.6 | 0.00 | 0.00 | 0.00 | 68 | 348.2 |
| 20260505011450 | 22 | 129 | 27.4 | 32.2 | 0.00 | 0.00 | 0.00 | 68 | 348.2 |
| 20260505010947 | 22 | 123 | 27.4 | 32.2 | 0.00 | 0.00 | 0.00 | 68 | 348.3 |
| 20260505010443 | 22 | 123 | 27.4 | 32.2 | 0.00 | 0.00 | 0.00 | 67 | 348.1 |
| 20260505005939 | 22 | 121 | 29.0 | 33.8 | 0.00 | 0.00 | 0.00 | 68 | 348.2 |
| 20260505005436 | 22 | 123 | 30.6 | 35.4 | 0.00 | 0.00 | 0.00 | 67 | 348.0 |
| 20260505004934 | 22 | 123 | 24.1 | 29.0 | 0.00 | 0.00 | 0.00 | 65 | 348.2 |
| 20260505004430 | 22 | 118 | 27.4 | 33.8 | 0.00 | 0.00 | 0.00 | 67 | 348.2 |
| 20260505003927 | 22 | 126 | 27.4 | 30.6 | 0.00 | 0.00 | 0.00 | 67 | 348.2 |
| 20260505003425 | 22 | 116 | 32.2 | 33.8 | 0.00 | 0.00 | 0.00 | 66 | 348.3 |
| 20260505002921 | 22 | 116 | 27.4 | 30.6 | 0.00 | 0.00 | 0.00 | 65 | 348.3 |
| 20260505002417 | 22 | 136 | 27.4 | 30.6 | 0.00 | 0.00 | 0.00 | 65 | 348.2 |
| 20260505001916 | 22 | 126 | 27.4 | 33.8 | 0.00 | 0.00 | 0.00 | 66 | 348.2 |
| 20260505001413 | 22 | 118 | 27.4 | 29.0 | 0.00 | 0.00 | 0.00 | 66 | 348.3 |
| 20260505000910 | 22 | 123 | 25.7 | 30.6 | 0.00 | 0.00 | 0.00 | 67 | 348.2 |
| 20260505000408 | 22 | 123 | 25.7 | 29.0 | 0.00 | 0.00 | 0.00 | 66 | 348.2 |
| 20260504235904 | 22 | 125 | 27.4 | 30.6 | 0.00 | 0.00 | 0.00 | 65 | 348.2 |
| 20260504235401 | 22 | 127 | 27.4 | 29.0 | 0.00 | 0.00 | 0.00 | 67 | 348.3 |
| 20260504234857 | 22 | 119 | 27.4 | 30.6 | 0.00 | 0.00 | 0.00 | 67 | 348.3 |
| 20260504234355 | 22 | 129 | 29.0 | 33.8 | 0.00 | 0.00 | 0.00 | 66 | 348.3 |
| 20260504233852 | 22 | 127 | 27.4 | 29.0 | 0.00 | 0.00 | 0.00 | 66 | 348.2 |
| 20260504233347 | 22 | 122 | 27.4 | 32.2 | 0.00 | 0.00 | 0.00 | 65 | 348.3 |
| 20260504232844 | 22 | 128 | 25.7 | 33.8 | 0.00 | 0.00 | 0.00 | 65 | 348.1 |
| 20260504232341 | 22 | 131 | 27.4 | 30.6 | 0.00 | 0.00 | 0.00 | 66 | 348.1 |
| 20260504231838 | 22 | 131 | 25.7 | 30.6 | 0.00 | 0.00 | 0.00 | 65 | 348.2 |
| 20260504231334 | 22 | 131 | 27.4 | 32.2 | 0.00 | 0.00 | 0.00 | 65 | 348.2 |
| 20260504230831 | 22 | 134 | 29.0 | 30.6 | 0.00 | 0.00 | 0.00 | 64 | 348.1 |
| 20260504230329 | 22 | 128 | 27.4 | 30.6 | 0.00 | 0.00 | 0.00 | 64 | 348.3 |
| 20260504225827 | 22 | 125 | 27.4 | 33.8 | 0.00 | 0.00 | 0.00 | 64 | 348.2 |
| 20260504225323 | 22 | 122 | 25.7 | 30.6 | 0.00 | 0.00 | 0.00 | 64 | 348.1 |
| 20260504224821 | 22 | 126 | 24.1 | 27.4 | 0.00 | 0.00 | 0.00 | 63 | 348.1 |
| 20260504224318 | 22 | 127 | 25.7 | 33.8 | 0.00 | 0.00 | 0.00 | 64 | 348.0 |
| 20260504223814 | 22 | 126 | 27.4 | 27.4 | 0.00 | 0.00 | 0.00 | 64 | 348.3 |
| 20260504223310 | 22 | 131 | 25.7 | 30.6 | 0.00 | 0.00 | 0.00 | 65 | 348.3 |
| 20260504222807 | 22 | 131 | 27.4 | 30.6 | 0.00 | 0.00 | 0.00 | 64 | 348.1 |
| 20260504222305 | 22 | 131 | 24.1 | 30.6 | 0.00 | 0.00 | 0.00 | 64 | 348.1 |
| 20260504221802 | 22 | 121 | 29.0 | 32.2 | 0.00 | 0.00 | 0.00 | 64 | 348.1 |
| 20260504221258 | 22 | 136 | 30.6 | 33.8 | 0.00 | 0.00 | 0.00 | 65 | 348.1 |
| 20260504220755 | 22 | 129 | 27.4 | 30.6 | 0.00 | 0.00 | 0.00 | 65 | 348.1 |
| 20260504220252 | 22 | 131 | 25.7 | 30.6 | 0.00 | 0.00 | 0.00 | 66 | 348.1 |
| 20260504215749 | 22 | 129 | 22.5 | 33.8 | 0.00 | 0.00 | 0.00 | 65 | 348.4 |
| 20260504215246 | 22 | 138 | 27.4 | 30.6 | 0.00 | 0.00 | 0.00 | 66 | 348.1 |
| 20260504214741 | 22 | 125 | 27.4 | 30.6 | 0.00 | 0.00 | 0.00 | 64 | 348.2 |
| 20260504214238 | 22 | 123 | 24.1 | 30.6 | 0.00 | 0.00 | 0.00 | 64 | 348.2 |
| 20260504213735 | 22 | 139 | 27.4 | 30.6 | 0.00 | 0.00 | 0.00 | 64 | 348.2 |
| 20260504213231 | 22 | 128 | 29.0 | 32.2 | 0.00 | 0.00 | 0.00 | 65 | 348.2 |
| 20260504212729 | 22 | 128 | 25.7 | 30.6 | 0.00 | 0.00 | 0.00 | 64 | 348.1 |
| 20260504212225 | 22 | 123 | 27.4 | 29.0 | 0.00 | 0.00 | 0.00 | 63 | 348.1 |
| 20260504211723 | 22 | 127 | 24.1 | 33.8 | 0.00 | 0.00 | 0.00 | 64 | 348.2 |
| 20260504211219 | 22 | 130 | 29.0 | 30.6 | 0.00 | 0.00 | 0.00 | 65 | 348.2 |
| 20260504210716 | 22 | 129 | 24.1 | 27.4 | 0.00 | 0.00 | 0.00 | 66 | 348.2 |
| 20260504210213 | 22 | 122 | 29.0 | 33.8 | 0.00 | 0.00 | 0.00 | 64 | 348.0 |
| 20260504205710 | 22 | 137 | 30.6 | 33.8 | 0.00 | 0.00 | 0.00 | 66 | 348.1 |
| 20260504205208 | 22 | 125 | 27.4 | 32.2 | 0.00 | 0.00 | 0.00 | 65 | 348.1 |
| 20260504204706 | 22 | 126 | 27.4 | 32.2 | 0.00 | 0.00 | 0.00 | 66 | 348.1 |
| 20260504204204 | 22 | 127 | 25.7 | 29.0 | 0.00 | 0.00 | 0.00 | 66 | 348.1 |
| 20260504203703 | 22 | 127 | 32.2 | 35.4 | 0.00 | 0.00 | 0.00 | 65 | 348.2 |
| 20260504203201 | 22 | 128 | 25.7 | 33.8 | 0.00 | 0.00 | 0.00 | 65 | 348.1 |
| 20260504202700 | 22 | 122 | 29.0 | 32.2 | 0.00 | 0.00 | 0.00 | 65 | 348.1 |
| 20260504202158 | 22 | 139 | 33.8 | 35.4 | 0.00 | 0.00 | 0.00 | 67 | 348.0 |
| 20260504201654 | 22 | 127 | 29.0 | 32.2 | 0.00 | 0.00 | 0.00 | 66 | 348.0 |
| 20260504201152 | 22 | 122 | 24.1 | 32.2 | 0.00 | 0.00 | 0.00 | 66 | 348.1 |
| 20260504200649 | 22 | 125 | 27.4 | 33.8 | 0.00 | 0.00 | 0.00 | 66 | 348.1 |
| 20260504200146 | 22 | 138 | 30.6 | 30.6 | 0.00 | 0.00 | 0.00 | 66 | 348.0 |
| 20260504195641 | 22 | 126 | 29.0 | 30.6 | 0.00 | 0.00 | 0.00 | 66 | 348.0 |
| 20260504195138 | 22 | 127 | 25.7 | 32.2 | 0.00 | 0.00 | 0.00 | 67 | 348.2 |
| 20260504194635 | 22 | 131 | 24.1 | 30.6 | 0.00 | 0.00 | 0.00 | 65 | 348.0 |
| 20260504194131 | 22 | 133 | 27.4 | 30.6 | 0.00 | 0.00 | 0.00 | 66 | 348.1 |
| 20260504193627 | 22 | 138 | 27.4 | 30.6 | 0.00 | 0.00 | 0.00 | 65 | 347.9 |
| 20260504193126 | 23 | 129 | 24.1 | 30.6 | 0.00 | 0.00 | 0.00 | 66 | 347.9 |
| 20260504192623 | 23 | 128 | 22.5 | 25.7 | 0.00 | 0.00 | 0.00 | 65 | 347.9 |
| 20260504192121 | 23 | 121 | 27.4 | 29.0 | 0.00 | 0.00 | 0.00 | 65 | 348.0 |
| 20260504191619 | 23 | 135 | 27.4 | 27.4 | 0.00 | 0.00 | 0.00 | 66 | 348.0 |
| 20260504191115 | 23 | 120 | 20.9 | 25.7 | 0.00 | 0.00 | 0.00 | 67 | 347.8 |
| 20260504190611 | 23 | 121 | 22.5 | 25.7 | 0.00 | 0.00 | 0.00 | 65 | 347.9 |
| 20260504190108 | 23 | 117 | 22.5 | 22.5 | 0.00 | 0.00 | 0.00 | 65 | 347.9 |
| 20260504185605 | 23 | 114 | 17.7 | 20.9 | 0.00 | 0.00 | 0.00 | 64 | 347.8 |
| 20260504185101 | 23 | 114 | 17.7 | 22.5 | 0.00 | 0.00 | 0.00 | 64 | 347.9 |
| 20260504184557 | 23 | 95 | 17.7 | 20.9 | 0.00 | 0.00 | 0.00 | 62 | 347.9 |
| 20260504184052 | 23 | 92 | 19.3 | 19.3 | 0.00 | 0.00 | 0.00 | 61 | 347.8 |
| 20260504183549 | 24 | 81 | 19.3 | 24.1 | 0.00 | 0.00 | 0.00 | 63 | 347.9 |
| 20260504183047 | 24 | 79 | 9.7 | 19.3 | 0.00 | 0.00 | 0.00 | 63 | 347.9 |
| 20260504182544 | 23 | 84 | 16.1 | 25.7 | 0.00 | 0.00 | 0.00 | 63 | 347.9 |
| 20260504182042 | 24 | 86 | 19.3 | 19.3 | 0.00 | 0.00 | 0.00 | 63 | 347.8 |
| 20260504181539 | 23 | 70 | 14.5 | 22.5 | 0.00 | 0.00 | 0.00 | 62 | 348.0 |
| 20260504181037 | 23 | 79 | 19.3 | 22.5 | 0.00 | 0.00 | 0.00 | 64 | 347.9 |
| 20260504180535 | 23 | 79 | 19.3 | 25.7 | 0.00 | 0.00 | 0.00 | 63 | 347.7 |
| 20260504180034 | 23 | 78 | 12.9 | 22.5 | 0.00 | 0.00 | 0.00 | 64 | 348.0 |
| 20260504175531 | 23 | 85 | 16.1 | 24.1 | 0.00 | 0.00 | 0.00 | 64 | 348.0 |
| 20260504175028 | 23 | 82 | 19.3 | 25.7 | 0.00 | 0.00 | 0.00 | 62 | 347.9 |
| 20260504174526 | 24 | 80 | 17.7 | 24.1 | 0.00 | 0.00 | 0.00 | 61 | 348.0 |
| 20260504174022 | 24 | 83 | 17.7 | 20.9 | 0.00 | 0.00 | 0.00 | 63 | 348.0 |
| 20260504173519 | 23 | 87 | 11.3 | 24.1 | 0.00 | 0.00 | 0.00 | 62 | 348.0 |
| 20260504173016 | 23 | 84 | 19.3 | 24.1 | 0.00 | 0.00 | 0.00 | 62 | 348.0 |
| 20260504172512 | 23 | 84 | 14.5 | 25.7 | 0.00 | 0.00 | 0.00 | 64 | 348.0 |
| 20260504172009 | 23 | 71 | 20.9 | 22.5 | 0.00 | 0.00 | 0.00 | 62 | 348.0 |
| 20260504171506 | 23 | 70 | 22.5 | 25.7 | 0.00 | 0.00 | 0.00 | 61 | 347.9 |
| 20260504171003 | 23 | 72 | 22.5 | 24.1 | 0.00 | 0.00 | 0.00 | 63 | 347.8 |
| 20260504170459 | 23 | 84 | 20.9 | 24.1 | 0.00 | 0.00 | 0.00 | 63 | 347.7 |
| 20260504160419 | 23 | 83 | 16.1 | 24.1 | 0.00 | 0.00 | 0.00 | 63 | 347.9 |
| 20260504150843 | 22 | 53 | 27.4 | 27.4 | 0.00 | 0.00 | 0.00 | 65 | 348.1 |
| 20260504150339 | 22 | 56 | 24.1 | 27.4 | 0.00 | 0.00 | 0.00 | 65 | 347.9 |